Location: ???????
(52.3000°N, 54.4667°E)
Time: 21:12:34
(UTC+00:00)

NOSS 2-1 (C) - Pass Details

Date: 24 January 2020
Orbit: 453 x 1751 km, 63.3° (Epoch: 19 February)

Event Time Altitude Azimuth Distance (km) Brightness Sun altitude
Rises 13:25:40 0° 313° (NW) 2,922 7.3 -5.2°
Reaches altitude 10° 13:27:40 10° 316° (NW) 2,141 6.6 -5.5°
Maximum altitude 13:32:32 77° 42° (NE) 878 4.2 -6.2°
Drops below altitude 10° 13:39:24 10° 129° (SE) 2,968 6.8 -7.1°
Sets 13:42:34 0° 131° (SE) 4,145 7.5 -7.6°
